This is the latest recevied weather packets stored in our database for station/object W4BOD. If no packets are shown the sender has not sent any weather packets the latest 1 day(s).
| Time | Temp. | Humidity | Pressure | Rain* | Wind** | Luminosity | Snow |
|---|---|---|---|---|---|---|---|
| 1778093554 | 12.78° C | 99% | 1014.4 hPa | 0 mm | - | 135 W/m² | - |
| 1778091131 | 12.78° C | 99% | 1014 hPa | 0 mm | - | 99 W/m² | - |
| 1778090220 | 12.78° C | 99% | 1013.7 hPa | 0 mm | - | 185 W/m² | - |
| 1778088700 | 12.78° C | 99% | 1013.4 hPa | 0 mm | - | 158 W/m² | - |
| 1778086575 | 12.78° C | 99% | 1013.6 hPa | 0 mm | - | 184 W/m² | - |
| 1778084439 | 12.78° C | 99% | 1013.4 hPa | 0 mm | - | 97 W/m² | - |
| 1778084137 | 12.78° C | 99% | 1013.4 hPa | 0 mm | - | 116 W/m² | - |
| 1778083834 | 12.22° C | 99% | 1013.4 hPa | 0 mm | - | 140 W/m² | - |
| 1778083532 | 12.78° C | 99% | 1013.5 hPa | 0 mm | - | 135 W/m² | - |
| 1778082927 | 12.22° C | 99% | 1013.7 hPa | 0 mm | - | 90 W/m² | - |
| 1778080910 | 12.22° C | 99% | 1013.3 hPa | 0 mm | - | 119 W/m² | - |
| 1778077882 | 12.78° C | 99% | 1012.8 hPa | 0 mm | - | 62 W/m² | - |
| 1778077278 | 12.78° C | 99% | 1012.2 hPa | 0 mm | - | 88 W/m² | - |
| 1778076068 | 12.78° C | 99% | 1011.8 hPa | 0 mm | - | 83 W/m² | - |
| 1778073642 | 12.22° C | 99% | 1010.7 hPa | 0 mm | - | 49 W/m² | - |
| 1778073339 | 12.22° C | 99% | 1010.5 hPa | 1.27 mm | - | 43 W/m² | - |
| 1778072430 | 12.22° C | 99% | 1011.7 hPa | 1.27 mm | - | 34 W/m² | - |
| 1778072128 | 12.22° C | 99% | 1011.8 hPa | 0 mm | - | 22 W/m² | - |
| 1778068497 | 12.78° C | 99% | 1011.3 hPa | 0 mm | - | 7 W/m² | - |
| 1778067590 | 12.78° C | 99% | 1010.5 hPa | 0 mm | - | 4 W/m² | - |
| 1778027360 | 20.56° C | 73% | 1008.8 hPa | 0 mm | - | 2 W/m² | - |
| 1778027056 | 20.56° C | 73% | 1008.8 hPa | 0 mm | - | 2 W/m² | - |
| 1778026751 | 20.56° C | 72% | 1008.1 hPa | 0 mm | - | 1 W/m² | - |
| 1778026449 | 20° C | 72% | 1008.1 hPa | 0 mm | - | 2 W/m² | - |
| 1778026146 | 20° C | 73% | 1008 hPa | 0 mm | - | 5 W/m² | - |
* Rain latest hour (hover to see other rain measurements)
** Current wind speed in m/s (hover to see current wind gust speed)